Tracking 25378 objects as of 22-Jan-2022
HD Live streaming from Space Station
objects crossing your sky now

ANDESITE

Track ANDESITE now!
10-day predictions


NORAD ID: 45726
Int'l Code: 2020-037D
Perigee: 587.3 km
Apogee: 608.0 km
Inclination: 97.7 °
Period: 96.5 minutes
Semi major axis: 6968 km
RCS: Unknown
Launch date: June 13, 2020
Source: United States (US)
Launch site: Rocket Lab Launch Complex (RLLC)
aabbcc
Your satellite tracking list
Your tracking list is empty




NASA's NSSDC Master Catalog

Two Line Element Set (TLE):
1 45726U 20037D   22022.42439263  .00000554  00000-0  59515-4 0  9990
2 45726  97.7266 201.9072 0014851 141.4183 218.8125 14.92388619 85107
Source of the keplerian elements: AFSPC